| time (UTC) | temp F | wind direction | speed MPH | gust MPH | rain 1hr in | rain 24hr in | rain mn in | humidity % | barometer mb |
| 20260504081631 | 72 | 350 | 4.0 | 13.0 | 0.03 | 0.35 | 0.04 | 93 | 1012.9 |
| 20260504081149 | 74 | 96 | 3.0 | 6.0 | 0.03 | 0.35 | 0.04 | 95 | 1012.8 |
| 20260504080646 | 74 | 96 | 0.0 | 3.0 | 0.02 | 0.34 | 0.03 | 95 | 1012.9 |
| 20260504080204 | 74 | 96 | 1.0 | 3.0 | 0.02 | 0.34 | 0.03 | 94 | 1013.0 |
| 20260504070138 | 75 | 96 | 2.0 | 6.0 | 0.00 | 0.32 | 0.01 | 93 | 1013.7 |
| 20260504060131 | 75 | 96 | 0.0 | 0.0 | 0.01 | 0.32 | 0.01 | 91 | 1014.3 |
| 20260504050658 | 76 | 96 | 0.0 | 0.0 | 0.00 | 0.31 | 0.00 | 88 | 1015.0 |
| 20260504050155 | 76 | 96 | 0.0 | 3.0 | 0.00 | 0.31 | 0.00 | 88 | 1015.1 |
| 20260504045642 | 76 | 96 | 0.0 | 4.0 | 0.00 | 0.31 | 0.00 | 88 | 1015.1 |
| 20260504045201 | 76 | 96 | 1.0 | 4.0 | 0.00 | 0.31 | 0.00 | 88 | 1015.1 |
| 20260504044638 | 76 | 96 | 1.0 | 6.0 | 0.00 | 0.31 | 0.00 | 88 | 1014.9 |
| 20260504044156 | 76 | 96 | 2.0 | 6.0 | 0.00 | 0.31 | 0.00 | 88 | 1014.8 |
| 20260504043654 | 76 | 96 | 2.0 | 6.0 | 0.00 | 0.31 | 0.00 | 88 | 1014.9 |
| 20260504043150 | 76 | 96 | 3.0 | 9.0 | 0.00 | 0.31 | 0.00 | 88 | 1014.9 |
| 20260504042632 | 76 | 96 | 2.0 | 9.0 | 0.00 | 0.31 | 0.00 | 88 | 1014.8 |
| 20260504042128 | 76 | 82 | 3.0 | 5.0 | 0.00 | 0.31 | 0.00 | 88 | 1014.9 |
| 20260504041720 | 76 | 82 | 2.0 | 5.0 | 0.00 | 0.31 | 0.00 | 88 | 1015.1 |
| 20260504041139 | 75 | 82 | 3.0 | 5.0 | 0.00 | 0.31 | 0.00 | 89 | 1015.2 |
| 20260504040655 | 75 | 82 | 2.0 | 6.0 | 0.00 | 0.31 | 0.00 | 89 | 1015.5 |
| 20260504040132 | 75 | 82 | 1.0 | 4.0 | 0.00 | 0.31 | 0.31 | 89 | 1015.4 |
| 20260504035640 | 75 | 82 | 0.0 | 4.0 | 0.00 | 0.31 | 0.31 | 89 | 1015.7 |
| 20260504035217 | 75 | 82 | 0.0 | 4.0 | 0.00 | 0.31 | 0.31 | 89 | 1015.4 |
| 20260504034633 | 75 | 82 | 0.0 | 5.0 | 0.00 | 0.31 | 0.31 | 89 | 1015.4 |
| 20260504034131 | 75 | 82 | 2.0 | 6.0 | 0.00 | 0.31 | 0.31 | 89 | 1015.4 |
| 20260504033628 | 75 | 82 | 1.0 | 6.0 | 0.00 | 0.31 | 0.31 | 89 | 1015.5 |
| 20260504033207 | 75 | 82 | 2.0 | 9.0 | 0.00 | 0.31 | 0.31 | 89 | 1015.4 |
| 20260504032704 | 75 | 82 | 3.0 | 9.0 | 0.00 | 0.31 | 0.31 | 89 | 1015.5 |
| 20260504032241 | 75 | 78 | 3.0 | 8.0 | 0.00 | 0.31 | 0.31 | 90 | 1015.7 |
| 20260504032138 | 75 | 78 | 3.0 | 8.0 | 0.00 | 0.31 | 0.31 | 90 | 1015.7 |
| 20260504031633 | 75 | 46 | 4.0 | 6.0 | 0.00 | 0.31 | 0.31 | 90 | 1015.5 |
| 20260504031225 | 75 | 69 | 0.0 | 7.0 | 0.00 | 0.31 | 0.31 | 90 | 1015.6 |
| 20260504030640 | 75 | 55 | 2.0 | 9.0 | 0.00 | 0.31 | 0.31 | 90 | 1015.6 |
| 20260504030141 | 75 | 81 | 1.0 | 8.0 | 0.00 | 0.31 | 0.31 | 90 | 1015.5 |
| 20260504025649 | 75 | 82 | 4.0 | 8.0 | 0.00 | 0.31 | 0.31 | 90 | 1015.5 |
| 20260504025146 | 75 | 82 | 3.0 | 8.0 | 0.00 | 0.31 | 0.31 | 90 | 1015.7 |
| 20260504024720 | 75 | 82 | 2.0 | 5.0 | 0.00 | 0.31 | 0.31 | 90 | 1016.0 |
| 20260504024140 | 75 | 82 | 1.0 | 5.0 | 0.00 | 0.31 | 0.31 | 90 | 1015.9 |
| 20260504023637 | 75 | 82 | 2.0 | 9.0 | 0.00 | 0.31 | 0.31 | 90 | 1015.9 |
| 20260504023155 | 75 | 83 | 1.0 | 9.0 | 0.00 | 0.31 | 0.31 | 90 | 1015.6 |
| 20260504022728 | 75 | 65 | 3.0 | 9.0 | 0.00 | 0.31 | 0.31 | 90 | 1015.4 |
| 20260504022244 | 75 | 39 | 3.0 | 7.0 | 0.00 | 0.31 | 0.31 | 90 | 1015.6 |
| 20260504021719 | 75 | 24 | 3.0 | 10.0 | 0.00 | 0.31 | 0.31 | 90 | 1015.8 |
| 20260504021637 | 75 | 24 | 3.0 | 10.0 | 0.00 | 0.31 | 0.31 | 90 | 1015.8 |
| 20260504021135 | 75 | 34 | 3.0 | 10.0 | 0.00 | 0.31 | 0.31 | 89 | 1015.6 |
| 20260504020651 | 75 | 70 | 3.0 | 11.0 | 0.00 | 0.31 | 0.31 | 89 | 1015.6 |
| 20260504020227 | 75 | 65 | 4.0 | 11.0 | 0.00 | 0.31 | 0.31 | 89 | 1015.9 |
| 20260504015633 | 75 | 16 | 2.0 | 8.0 | 0.00 | 0.31 | 0.31 | 89 | 1015.9 |
| 20260504015210 | 75 | 80 | 2.0 | 8.0 | 0.00 | 0.31 | 0.31 | 89 | 1015.9 |
| 20260504014706 | 75 | 80 | 2.0 | 9.0 | 0.00 | 0.31 | 0.31 | 89 | 1015.7 |
| 20260504014242 | 75 | 81 | 4.0 | 9.0 | 0.00 | 0.31 | 0.31 | 89 | 1015.5 |
| 20260504013638 | 75 | 82 | 3.0 | 8.0 | 0.00 | 0.31 | 0.31 | 90 | 1015.6 |
| 20260504013215 | 75 | 74 | 2.0 | 5.0 | 0.00 | 0.31 | 0.31 | 90 | 1015.6 |
| 20260504012631 | 75 | 66 | 2.0 | 5.0 | 0.00 | 0.31 | 0.31 | 90 | 1015.5 |
| 20260504012128 | 75 | 63 | 1.0 | 10.0 | 0.00 | 0.31 | 0.31 | 90 | 1015.6 |
| 20260504011707 | 75 | 13 | 2.0 | 10.0 | 0.00 | 0.31 | 0.31 | 90 | 1015.6 |
| 20260504011223 | 75 | 22 | 3.0 | 6.0 | 0.00 | 0.31 | 0.31 | 90 | 1015.5 |
| 20260504010738 | 75 | 5 | 2.0 | 8.0 | 0.00 | 0.31 | 0.31 | 90 | 1015.5 |
| 20260504010656 | 75 | 5 | 2.0 | 8.0 | 0.00 | 0.31 | 0.31 | 90 | 1015.5 |
| 20260504010132 | 74 | 5 | 2.0 | 8.0 | 0.00 | 0.31 | 0.31 | 90 | 1015.5 |
| 20260504005700 | 74 | 12 | 3.0 | 6.0 | 0.00 | 0.31 | 0.31 | 90 | 1015.4 |
| 20260504005136 | 74 | 13 | 2.0 | 9.0 | 0.00 | 0.31 | 0.31 | 90 | 1015.3 |
| 20260504004715 | 74 | 37 | 2.0 | 9.0 | 0.00 | 0.31 | 0.31 | 89 | 1015.3 |
| 20260504004131 | 74 | 60 | 0.0 | 9.0 | 0.00 | 0.31 | 0.31 | 89 | 1015.2 |
| 20260504003628 | 74 | 5 | 3.0 | 9.0 | 0.00 | 0.31 | 0.31 | 89 | 1015.1 |
| 20260504003145 | 74 | 21 | 3.0 | 7.0 | 0.00 | 0.31 | 0.31 | 89 | 1015.0 |
| 20260504002642 | 74 | 70 | 2.0 | 9.0 | 0.00 | 0.31 | 0.31 | 89 | 1015.0 |
| 20260504002200 | 74 | 86 | 4.0 | 10.0 | 0.00 | 0.31 | 0.31 | 89 | 1014.7 |
| 20260504001637 | 74 | 24 | 4.0 | 11.0 | 0.00 | 0.31 | 0.31 | 90 | 1014.7 |
| 20260504001214 | 74 | 355 | 5.0 | 11.0 | 0.00 | 0.31 | 0.31 | 90 | 1014.8 |
| 20260504000630 | 74 | 46 | 3.0 | 10.0 | 0.00 | 0.31 | 0.31 | 90 | 1014.8 |
| 20260504000128 | 74 | 40 | 2.0 | 8.0 | 0.00 | 0.31 | 0.31 | 90 | 1014.7 |
| 20260503235637 | 74 | 32 | 2.0 | 10.0 | 0.00 | 0.31 | 0.31 | 91 | 1014.7 |
| 20260503235235 | 74 | 66 | 4.0 | 10.0 | 0.00 | 0.31 | 0.31 | 91 | 1014.7 |
| 20260503235152 | 74 | 66 | 4.0 | 10.0 | 0.00 | 0.31 | 0.31 | 91 | 1014.7 |
| 20260503234629 | 74 | 30 | 5.0 | 11.0 | 0.00 | 0.31 | 0.31 | 91 | 1014.6 |
| 20260503234207 | 74 | 24 | 6.0 | 11.0 | 0.00 | 0.31 | 0.31 | 91 | 1014.5 |
| 20260503233744 | 74 | 339 | 4.0 | 11.0 | 0.00 | 0.31 | 0.31 | 92 | 1014.5 |
| 20260503233701 | 74 | 339 | 4.0 | 11.0 | 0.00 | 0.31 | 0.31 | 92 | 1014.5 |
| 20260503233140 | 74 | 56 | 3.0 | 9.0 | 0.00 | 0.31 | 0.31 | 92 | 1014.6 |
| 20260503232639 | 74 | 33 | 4.0 | 13.0 | 0.00 | 0.31 | 0.31 | 92 | 1014.7 |
| 20260503232217 | 74 | 42 | 5.0 | 13.0 | 0.00 | 0.31 | 0.31 | 92 | 1014.5 |
| 20260503231652 | 74 | 23 | 5.0 | 11.0 | 0.00 | 0.31 | 0.31 | 92 | 1014.5 |
| 20260503231128 | 74 | 46 | 4.0 | 12.0 | 0.00 | 0.31 | 0.31 | 92 | 1014.5 |
| 20260503230645 | 74 | 69 | 4.0 | 12.0 | 0.00 | 0.31 | 0.31 | 93 | 1014.5 |
| 20260503230204 | 74 | 34 | 3.0 | 7.0 | 0.00 | 0.31 | 0.31 | 93 | 1014.4 |
| 20260503225651 | 74 | 65 | 2.0 | 7.0 | 0.00 | 0.31 | 0.31 | 93 | 1014.5 |
| 20260503225129 | 74 | 31 | 3.0 | 9.0 | 0.00 | 0.31 | 0.31 | 93 | 1014.5 |
| 20260503224628 | 74 | 56 | 4.0 | 9.0 | 0.00 | 0.31 | 0.31 | 93 | 1014.6 |
| 20260503224206 | 74 | 27 | 4.0 | 9.0 | 0.00 | 0.31 | 0.31 | 93 | 1014.5 |
| 20260503223644 | 74 | 78 | 3.0 | 9.0 | 0.00 | 0.31 | 0.31 | 93 | 1014.5 |
| 20260503223143 | 74 | 345 | 3.0 | 8.0 | 0.00 | 0.31 | 0.31 | 93 | 1014.4 |
| 20260503222641 | 74 | 46 | 3.0 | 9.0 | 0.00 | 0.31 | 0.31 | 93 | 1014.4 |
| 20260503222219 | 74 | 11 | 4.0 | 9.0 | 0.00 | 0.31 | 0.31 | 93 | 1014.4 |
| 20260503221636 | 74 | 360 | 2.0 | 10.0 | 0.00 | 0.31 | 0.31 | 93 | 1014.6 |
| 20260503221135 | 74 | 360 | 5.0 | 10.0 | 0.00 | 0.31 | 0.31 | 93 | 1014.6 |
| 20260503220732 | 74 | 40 | 3.0 | 12.0 | 0.02 | 0.31 | 0.31 | 93 | 1014.6 |
| 20260503220225 | 74 | 9 | 6.0 | 12.0 | 0.04 | 0.31 | 0.31 | 93 | 1014.6 |
| 20260503215649 | 74 | 41 | 2.0 | 11.0 | 0.06 | 0.31 | 0.31 | 94 | 1014.6 |
| 20260503215146 | 74 | 38 | 4.0 | 11.0 | 0.06 | 0.31 | 0.31 | 93 | 1014.6 |
| 20260503214642 | 74 | 28 | 2.0 | 8.0 | 0.06 | 0.31 | 0.31 | 94 | 1014.5 |
| 20260503214137 | 74 | 60 | 2.0 | 10.0 | 0.07 | 0.31 | 0.31 | 94 | 1014.4 |
| 20260503213634 | 75 | 13 | 3.0 | 10.0 | 0.07 | 0.31 | 0.31 | 94 | 1014.4 |
| 20260503213212 | 74 | 355 | 6.0 | 12.0 | 0.07 | 0.31 | 0.31 | 94 | 1014.5 |
| 20260503212709 | 74 | 19 | 7.0 | 12.0 | 0.07 | 0.31 | 0.31 | 93 | 1014.4 |
| 20260503212225 | 74 | 49 | 5.0 | 11.0 | 0.07 | 0.31 | 0.31 | 93 | 1014.5 |
| 20260503211700 | 74 | 70 | 3.0 | 11.0 | 0.07 | 0.31 | 0.31 | 93 | 1014.6 |
| 20260503211218 | 74 | 101 | 2.0 | 11.0 | 0.07 | 0.31 | 0.31 | 93 | 1014.9 |
| 20260503210712 | 74 | 23 | 3.0 | 10.0 | 0.05 | 0.29 | 0.29 | 92 | 1014.9 |
| 20260503210630 | 74 | 23 | 3.0 | 10.0 | 0.05 | 0.29 | 0.29 | 92 | 1014.9 |
| 20260503210128 | 75 | 26 | 5.0 | 9.0 | 0.03 | 0.27 | 0.27 | 92 | 1014.9 |
| 20260503205658 | 75 | 44 | 4.0 | 10.0 | 0.01 | 0.25 | 0.25 | 91 | 1015.0 |
| 20260503205135 | 75 | 342 | 2.0 | 10.0 | 0.01 | 0.25 | 0.25 | 91 | 1015.2 |
| 20260503204631 | 75 | 11 | 4.0 | 9.0 | 0.01 | 0.25 | 0.25 | 91 | 1015.0 |
| 20260503204249 | 76 | 79 | 2.0 | 8.0 | 0.00 | 0.24 | 0.24 | 91 | 1015.1 |
| 20260503204145 | 76 | 79 | 2.0 | 8.0 | 0.00 | 0.24 | 0.24 | 91 | 1015.1 |
| 20260503203704 | 76 | 82 | 2.0 | 6.0 | 0.00 | 0.24 | 0.24 | 91 | 1015.0 |
| 20260503203217 | 75 | 51 | 2.0 | 12.0 | 0.00 | 0.24 | 0.24 | 90 | 1015.3 |
| 20260503202652 | 75 | 42 | 5.0 | 12.0 | 0.00 | 0.24 | 0.24 | 90 | 1015.3 |
| 20260503202229 | 75 | 23 | 5.0 | 12.0 | 0.01 | 0.24 | 0.24 | 90 | 1015.3 |
| 20260503202147 | 75 | 23 | 5.0 | 12.0 | 0.01 | 0.24 | 0.24 | 90 | 1015.3 |
| 20260503201645 | 76 | 36 | 4.0 | 12.0 | 0.01 | 0.24 | 0.24 | 90 | 1015.3 |
| 20260503201223 | 76 | 14 | 4.0 | 12.0 | 0.01 | 0.24 | 0.24 | 90 | 1015.3 |
| 20260503200640 | 76 | 13 | 6.0 | 11.0 | 0.01 | 0.24 | 0.24 | 90 | 1015.0 |
| 20260503200138 | 76 | 24 | 5.0 | 13.0 | 0.01 | 0.24 | 0.24 | 91 | 1014.9 |
| 20260503195705 | 76 | 360 | 5.0 | 13.0 | 0.01 | 0.24 | 0.24 | 91 | 1015.1 |
| 20260503195139 | 76 | 49 | 4.0 | 12.0 | 0.01 | 0.24 | 0.24 | 91 | 1015.0 |
| 20260503194714 | 76 | 17 | 5.0 | 12.0 | 0.01 | 0.24 | 0.24 | 91 | 1015.0 |
| 20260503194249 | 76 | 47 | 3.0 | 10.0 | 0.01 | 0.24 | 0.24 | 91 | 1015.1 |
| 20260503193724 | 76 | 45 | 5.0 | 12.0 | 0.01 | 0.24 | 0.24 | 91 | 1015.0 |
| 20260503193158 | 76 | 344 | 4.0 | 13.0 | 0.01 | 0.24 | 0.24 | 91 | 1015.0 |
| 20260503192635 | 77 | 19 | 7.0 | 13.0 | 0.01 | 0.24 | 0.24 | 90 | 1014.9 |
| 20260503192153 | 77 | 5 | 4.0 | 10.0 | 0.00 | 0.23 | 0.23 | 91 | 1015.0 |
| 20260503191649 | 77 | 22 | 1.0 | 6.0 | 0.00 | 0.23 | 0.23 | 91 | 1015.1 |
| 20260503191205 | 77 | 355 | 4.0 | 10.0 | 0.00 | 0.23 | 0.23 | 90 | 1015.3 |
| 20260503190641 | 77 | 347 | 4.0 | 10.0 | 0.00 | 0.23 | 0.23 | 90 | 1015.1 |
| 20260503190137 | 77 | 38 | 7.0 | 10.0 | 0.00 | 0.23 | 0.23 | 90 | 1015.2 |
| 20260503185747 | 77 | 13 | 4.0 | 6.0 | 0.00 | 0.23 | 0.23 | 91 | 1015.6 |
| 20260503185202 | 77 | 41 | 2.0 | 6.0 | 0.01 | 0.23 | 0.23 | 91 | 1015.6 |
| 20260503184721 | 77 | 360 | 3.0 | 6.0 | 0.01 | 0.23 | 0.23 | 91 | 1015.7 |
| 20260503184136 | 77 | 53 | 2.0 | 8.0 | 0.03 | 0.23 | 0.23 | 91 | 1015.7 |
| 20260503183654 | 77 | 329 | 5.0 | 9.0 | 0.03 | 0.23 | 0.23 | 91 | 1016.0 |
| 20260503183229 | 77 | 333 | 5.0 | 9.0 | 0.04 | 0.23 | 0.23 | 90 | 1015.9 |
| 20260503182704 | 77 | 9 | 2.0 | 8.0 | 0.04 | 0.23 | 0.23 | 91 | 1016.2 |
| 20260503182235 | 77 | 5 | 0.0 | 0.0 | 0.04 | 0.23 | 0.23 | 91 | 1016.2 |
| 20260503182153 | 77 | 5 | 0.0 | 0.0 | 0.04 | 0.23 | 0.23 | 91 | 1016.2 |
| 20260503181634 | 76 | 5 | 0.0 | 0.0 | 0.04 | 0.23 | 0.23 | 91 | 1016.3 |
| 20260503181131 | 76 | 5 | 0.0 | 0.0 | 0.04 | 0.23 | 0.23 | 90 | 1016.4 |
| 20260503180628 | 77 | 5 | 0.0 | 2.0 | 0.04 | 0.23 | 0.23 | 90 | 1016.4 |
| 20260503180206 | 77 | 5 | 1.0 | 2.0 | 0.04 | 0.23 | 0.23 | 89 | 1016.5 |
| 20260503175653 | 77 | 5 | 0.0 | 4.0 | 0.04 | 0.23 | 0.23 | 89 | 1016.5 |
| 20260503175129 | 77 | 5 | 1.0 | 4.0 | 0.03 | 0.22 | 0.22 | 88 | 1016.6 |
| 20260503174646 | 77 | 5 | 1.0 | 5.0 | 0.03 | 0.22 | 0.22 | 88 | 1016.6 |
| 20260503174144 | 77 | 5 | 2.0 | 6.0 | 0.01 | 0.20 | 0.20 | 86 | 1016.7 |
| 20260503173642 | 78 | 5 | 2.0 | 6.0 | 0.01 | 0.20 | 0.20 | 86 | 1016.7 |
| 20260503173220 | 78 | 13 | 3.0 | 8.0 | 0.00 | 0.19 | 0.19 | 84 | 1016.5 |
| 20260503173138 | 78 | 13 | 3.0 | 8.0 | 0.00 | 0.19 | 0.19 | 84 | 1016.5 |
| 20260503172656 | 78 | 348 | 3.0 | 6.0 | 0.00 | 0.19 | 0.19 | 84 | 1016.5 |
| 20260503172131 | 78 | 30 | 3.0 | 8.0 | 0.00 | 0.19 | 0.19 | 84 | 1016.5 |
| 20260503171749 | 78 | 31 | 4.0 | 8.0 | 0.00 | 0.19 | 0.19 | 84 | 1016.5 |
| 20260503171204 | 78 | 31 | 1.0 | 9.0 | 0.00 | 0.19 | 0.19 | 84 | 1016.6 |
| 20260503170700 | 78 | 31 | 2.0 | 9.0 | 0.00 | 0.19 | 0.19 | 84 | 1016.5 |
| 20260503170135 | 78 | 5 | 3.0 | 8.0 | 0.00 | 0.19 | 0.19 | 84 | 1016.5 |
| 20260503160150 | 78 | 86 | 3.0 | 9.0 | 0.00 | 0.19 | 0.19 | 86 | 1016.6 |
| 20260503150706 | 77 | 319 | 3.0 | 9.0 | 0.00 | 0.19 | 0.19 | 88 | 1017.0 |
| 20260503150143 | 77 | 26 | 5.0 | 8.0 | 0.00 | 0.19 | 0.19 | 88 | 1016.9 |
| 20260503140140 | 75 | 22 | 1.0 | 4.0 | 0.00 | 0.19 | 0.19 | 94 | 1016.6 |
| 20260503131241 | 73 | 346 | 0.0 | 0.0 | 0.09 | 0.19 | 0.19 | 94 | 1016.3 |
| 20260503130655 | 73 | 346 | 0.0 | 0.0 | 0.17 | 0.19 | 0.19 | 94 | 1016.4 |
| 20260503130130 | 72 | 346 | 0.0 | 0.0 | 0.18 | 0.19 | 0.19 | 93 | 1016.3 |
| 20260503120143 | 73 | 333 | 2.0 | 5.0 | 0.01 | 0.01 | 0.01 | 90 | 1015.4 |
| 20260503110630 | 74 | 319 | 2.0 | 6.0 | 0.00 | 0.00 | 0.00 | 85 | 1014.5 |
| 20260503110133 | 74 | 333 | 4.0 | 6.0 | 0.00 | 0.00 | 0.00 | 85 | 1014.6 |
| 20260503100130 | 76 | 342 | 0.0 | 2.0 | 0.00 | 0.00 | 0.00 | 84 | 1013.9 |
| 20260503090132 | 76 | 336 | 0.0 | 4.0 | 0.00 | 0.00 | 0.00 | 83 | 1013.9 |